This is the latest recevied weather packets stored in our database for station/object APPOWX. If no packets are shown the sender has not sent any weather packets the latest 10 day(s).
| Time | Temp. | Humidity | Pressure | Rain* | Wind** | Luminosity | Snow |
|---|---|---|---|---|---|---|---|
| 1777577188 | 19.44° C | 49% | 1012 hPa | 0 mm | - | - | - |
| 1777577127 | 19.44° C | 47% | 1012 hPa | 0 mm | - | - | - |
| 1777577068 | 19.44° C | 47% | 1011.9 hPa | 0 mm | - | - | - |
| 1777577007 | 19.44° C | 44% | 1011.9 hPa | 0 mm | - | - | - |
| 1777576947 | 19.44° C | 44% | 1011.9 hPa | 0 mm | - | - | - |
| 1777576887 | 19.44° C | 43% | 1011.8 hPa | 0 mm | - | - | - |
| 1777576827 | 19.44° C | 44% | 1011.9 hPa | 0 mm | - | - | - |
| 1777576767 | 19.44° C | 43% | 1011.9 hPa | 0 mm | - | - | - |
| 1777576706 | 18.89° C | 51% | 1011.9 hPa | 0 mm | - | - | - |
| 1777576647 | 18.33° C | 49% | 1011.9 hPa | 0 mm | - | - | - |
| 1777576586 | 18.89° C | 47% | 1011.7 hPa | 0 mm | - | - | - |
| 1777576526 | 17.78° C | 46% | 1012 hPa | 0 mm | - | - | - |
| 1777576466 | 17.78° C | 45% | 1011.9 hPa | 0 mm | - | - | - |
| 1777576406 | 17.78° C | 51% | 1011.9 hPa | 0 mm | - | - | - |
| 1777576346 | 17.78° C | 47% | 1012 hPa | 0 mm | - | - | - |
| 1777576285 | 17.78° C | 46% | 1012.1 hPa | 0 mm | - | - | - |
| 1777576226 | 17.78° C | 48% | 1011.9 hPa | 0 mm | - | - | - |
| 1777576165 | 17.22° C | 47% | 1011.8 hPa | 0 mm | - | - | - |
| 1777576106 | 17.22° C | 46% | 1011.9 hPa | 0 mm | - | - | - |
| 1777576044 | 17.78° C | 47% | 1012.1 hPa | 0 mm | - | - | - |
| 1777575984 | 18.33° C | 47% | 1012.1 hPa | 0 mm | - | - | - |
| 1777575924 | 18.33° C | 48% | 1012 hPa | 0 mm | - | - | - |
| 1777575865 | 18.89° C | 49% | 1012.1 hPa | 0 mm | - | - | - |
| 1777575804 | 19.44° C | 46% | 1011.9 hPa | 0 mm | - | - | - |
| 1777575744 | 18.33° C | 45% | 1012 hPa | 0 mm | - | - | - |
* Rain latest hour (hover to see other rain measurements)
** Current wind speed in m/s (hover to see current wind gust speed)